Regional Weather Roundup
Issued by NWS Green Bay, WI

Home | Current Version | Previous Version | Graphics & Text | Print | Product List | Glossary Off
Versions: 1 2 3 4 5 6 7 8 9 10 11 12 13 14 15 16 17 18 19 20 21 22 23 24 25 26 27 28 29 30 31 32 33 34 35 36 37 38 39 40 41 42 43 44 45 46 47 48 49 50

000
ASUS43 KGRB 180259
RWRGRB

NORTH-CENTRAL AND NORTHEAST WISCONSIN REGIONAL WEATHER ROUNDUP
NATIONAL WEATHER SERVICE GREEN BAY WI
1000 PM CDT FRI APR 17 2015

WIZ005-009-010>012-018-019-180400-
NORTH CENTRAL WISCONSIN

CITY           SKY/WX    TMP DP  RH WIND       PRES   REMARKS
IRONWOOD       CLEAR     48  34  57 SW5       29.97R
MANITOWISH WTR NOT AVBL
ARBOR VITAE    NOT AVBL
EAGLE RIVER    NOT AVBL
LAND O LAKES   NOT AVBL
RHINELANDER    CLEAR     57  28  33 W7        30.01R
PHILLIPS       NOT AVBL
ANTIGO         NOT AVBL
TOMAHAWK       NOT AVBL
MERRILL        NOT AVBL
$$

WIZ013-073-180400-
NORTHEAST WISCONSIN

CITY           SKY/WX    TMP DP  RH WIND       PRES   REMARKS
IRON MOUNTAIN  CLEAR     51  39  63 SE6       29.97R
MARINETTE      CLEAR     45  36  70 CALM      29.96F
$$

WIZ017-030-035>037-045-180400-
CENTRAL WISCONSIN

CITY           SKY/WX    TMP DP  RH WIND       PRES   REMARKS
MEDFORD        NOT AVBL
WAUSAU         CLEAR     61  41  47 NW7       29.98S
MOSINEE        CLEAR     61  41  48 W8        30.01R
MARSHFIELD     CLEAR     57  43  59 NW10      30.01R
WISC RAPIDS    CLEAR     57  40  52 CALM      30.01R
STEVENS POINT  NOT AVBL
WAUPACA        NOT AVBL
SHAWANO        NOT AVBL
CLINTONVILLE   NOT AVBL
$$

WIZ038-039-048-051-180400-
FOX VALLEY

CITY           SKY/WX    TMP DP  RH WIND       PRES   REMARKS
NWS GREEN BAY  CLEAR     56  45  66 CALM      29.98R
APPLETON       CLEAR     59  43  55 S5        29.99R
OSHKOSH        PTCLDY    57  44  62 S9        29.99R
FOND DU LAC    CLEAR     58  42  55 S3        29.99R
$$

WIZ022-050-052-180400-
EAST CENTRAL WISCONSIN

CITY           SKY/WX    TMP DP  RH WIND       PRES   REMARKS
STURGEON BAY   CLEAR     46  37  71 S6        29.99S
MANITOWOC      NOT AVBL
SHEBOYGAN      CLEAR     49  40  71 SW5       29.99S
$$

LMZ563-521-522-541>543-180400-
LAKESHORE

STATION/POSITION TIME  TEMP    WIND        PRES    VSBY  WAVE
                       AIR SEA DIR/SP/G                  HT/PER
                 (UTC) (F)     (DEG/KT/KT) (MB)    (MI)  (FT/S)
SHEBOYGAN LKSHOR 0200   49     210/  8/  8 1016.2S
KEWAUNEE LKSHORE 0200   45     170/  8/  9 1014.5F
NORTHPORT PIER   0200   45     190/  1/  2 1015.2R
SISTER BAY LKSHO 0200   49     200/  5/  6   N/A
CHAMBERS ISLAND  0200   43      CALM  /  1 1015.2S
MENOMINEE LKSHOR 0200   47     140/  6/  6 1015.4S
$$


USA.gov is the U.S. government's official web portal to all federal, state and local government web resources and services.